Orange, MA

9:35 PM EDT on May 28, 2017 (GMT -0400)
Orange Municipal

Weather History for KORE - April, 2014

Change the Weather History Date:

Tuesday, April 15, 2014

  Actual Average Record
Temperature  
Mean Temperature 48 °F -  
Max Temperature 62 °F 56 °F 81 °F (2003)
Min Temperature 33 °F 31 °F 19 °F (1997)
Degree Days  
Heating Degree Days 18    
Moisture  
Dew Point 53 °F    
Average Humidity 90    
Maximum Humidity 96    
Minimum Humidity 78    
Precipitation  
Precipitation 1.48 in - - ()
Sea Level Pressure  
Sea Level Pressure 29.67 in    
Wind  
Wind Speed 14 mph (SSW)    
Max Wind Speed 28 mph    
Max Gust Speed 37 mph    
Visibility 5 miles    
Events Rain , Snow    
Averages and records for this station are not official NWS values.
T = Trace of Precipitation, MM = Missing Value Source: NWS Daily Summary

Daily Weather History Graph

Daily Weather History Graph

Search for Another Location

Airport or City:

Trip Planner

Search our weather history database for the weather conditions in past years. The results will help you decide how hot, cold, wet, or windy it might be!

Date:

Astronomy

Apr. 15, 2014 Rise Set
Actual Time 6:08 AM EDT 7:31 PM EDT
Civil Twilight 5:38 AM EDT 8:00 PM EDT
Nautical Twilight 5:03 AM EDT 8:35 PM EDT
Astronomical Twilight 4:26 AM EDT 9:13 PM EDT
Moon 8:09 PM EDT (4/15) 6:13 AM EDT (4/15)
Length of Visible Light 14h 21m
Length of Day
13h 23m
Full, 100% of the Moon is Illuminated
Apr 15
Full
Apr 22
Last Quarter
Apr 29
New
May 6
First Quarter
May 14
Full

Hourly Weather History & Observations

Time (EDT) Temp. Windchill Dew Point Humidity Pressure Visibility Wind Dir Wind Speed Gust Speed Precip Events Conditions
12:52 AM 61.0 °F - 54.0 °F 78% 29.85 in 10.0 mi SSE 10.4 mph 20.7 mph N/A   Overcast
1:52 AM 61.0 °F - 55.0 °F 81% 29.84 in 10.0 mi South 16.1 mph 24.2 mph N/A   Overcast
2:52 AM 61.0 °F - 55.0 °F 81% 29.82 in 10.0 mi South 12.7 mph 25.3 mph N/A   Overcast
3:52 AM 61.0 °F - 55.0 °F 81% 29.82 in 10.0 mi South 16.1 mph 21.9 mph N/A   Overcast
4:52 AM 61.0 °F - 55.0 °F 81% 29.81 in 10.0 mi South 19.6 mph 27.6 mph N/A   Overcast
5:25 AM 60.1 °F - 55.9 °F 86% 29.80 in 6.0 mi South 15.0 mph - N/A   Overcast
5:52 AM 59.0 °F - 57.0 °F 93% 29.80 in 7.0 mi South 13.8 mph - 0.00 in Rain Light Rain
6:05 AM 59.0 °F - 57.0 °F 93% 29.79 in 5.0 mi South 16.1 mph 26.5 mph 0.00 in Rain Light Rain
6:19 AM 59.0 °F - 57.0 °F 93% 29.79 in 7.0 mi South 15.0 mph 25.3 mph 0.00 in Rain Light Rain
6:52 AM 59.0 °F - 57.0 °F 93% 29.78 in 10.0 mi South 12.7 mph 21.9 mph 0.00 in   Overcast
7:52 AM 60.1 °F - 57.0 °F 90% 29.75 in 7.0 mi South 13.8 mph 23.0 mph 0.00 in Rain Light Rain
8:16 AM 59.0 °F - 57.0 °F 93% 29.74 in 2.5 mi South 11.5 mph - 0.04 in Rain Light Rain
8:24 AM 59.0 °F - 57.9 °F 96% 29.73 in 1.8 mi South 8.1 mph - 0.05 in Rain Rain
8:52 AM 59.0 °F - 57.9 °F 96% 29.73 in 1.8 mi South 8.1 mph - 0.18 in Rain Rain
9:00 AM 59.0 °F - 57.9 °F 96% 29.72 in 2.0 mi South 9.2 mph - 0.01 in Rain Rain
9:25 AM 59.0 °F - 57.9 °F 96% 29.71 in 1.5 mi South 11.5 mph 19.6 mph 0.06 in Rain Rain
9:31 AM 60.1 °F - 57.9 °F 93% 29.71 in 3.0 mi South 15.0 mph 20.7 mph 0.07 in Rain Light Rain
9:46 AM 60.8 °F - 57.2 °F 88% 29.70 in 2.0 mi South 10.4 mph 20.7 mph 0.11 in Rain Rain
9:49 AM 60.8 °F - 57.2 °F 88% 29.70 in 1.5 mi South 12.7 mph 20.7 mph 0.13 in Rain Heavy Rain
9:52 AM 60.1 °F - 57.9 °F 93% 29.70 in 1.2 mi South 9.2 mph - 0.16 in Rain Heavy Rain
10:04 AM 60.1 °F - 57.9 °F 93% 29.70 in 2.0 mi South 15.0 mph - 0.07 in Rain Rain
10:09 AM 60.1 °F - 57.9 °F 93% 29.69 in 3.0 mi South 11.5 mph 20.7 mph 0.08 in Rain Rain
10:16 AM 60.1 °F - 57.9 °F 93% 29.69 in 2.5 mi South 13.8 mph 19.6 mph 0.10 in Rain Rain
10:21 AM 60.1 °F - 57.9 °F 93% 29.68 in 1.8 mi South 13.8 mph 19.6 mph 0.12 in Rain Rain
10:32 AM 60.1 °F - 57.9 °F 93% 29.68 in 1.2 mi South 11.5 mph 21.9 mph 0.19 in Rain Rain
10:52 AM 61.0 °F - 59.0 °F 93% 29.68 in 1.8 mi South 13.8 mph - 0.27 in Rain Rain
11:01 AM 61.0 °F - 57.9 °F 90% 29.67 in 3.0 mi South 18.4 mph 25.3 mph 0.01 in Rain Light Rain
11:19 AM 61.0 °F - 57.9 °F 90% 29.66 in 1.8 mi South 13.8 mph 27.6 mph 0.03 in Rain Light Rain
11:32 AM 61.0 °F - 59.0 °F 93% 29.65 in 3.0 mi South 19.6 mph 28.8 mph 0.06 in Rain Light Rain
11:52 AM 62.1 °F - 57.9 °F 86% 29.64 in 10.0 mi South 20.7 mph 31.1 mph 0.06 in   Overcast
12:31 PM 61.0 °F - 57.9 °F 90% 29.61 in 2.0 mi South 18.4 mph 28.8 mph 0.07 in Rain Rain
12:52 PM 61.0 °F - 57.9 °F 90% 29.60 in 2.5 mi South 18.4 mph 32.2 mph 0.09 in Rain Rain
12:56 PM 61.0 °F - 57.9 °F 90% 29.60 in 3.0 mi South 19.6 mph 34.5 mph 0.01 in Rain Light Rain
1:03 PM 61.0 °F - 57.9 °F 90% 29.60 in 2.0 mi South 19.6 mph 33.4 mph 0.04 in Rain Rain
1:36 PM 60.1 °F - 57.9 °F 93% 29.59 in 3.0 mi South 16.1 mph 26.5 mph 0.15 in Rain Light Rain
1:44 PM 60.1 °F - 57.9 °F 93% 29.59 in 3.0 mi South 16.1 mph 23.0 mph 0.17 in Rain Rain
1:52 PM 60.1 °F - 57.9 °F 93% 29.59 in 2.5 mi South 16.1 mph 27.6 mph 0.18 in Rain Light Rain
2:03 PM 60.1 °F - 57.9 °F 93% 29.59 in 1.8 mi South 16.1 mph - 0.02 in Rain Light Rain
2:16 PM 60.1 °F - 57.9 °F 93% 29.57 in 3.0 mi South 15.0 mph 21.9 mph 0.06 in Rain Rain
2:28 PM 60.1 °F - 57.9 °F 93% 29.57 in 2.0 mi South 16.1 mph 24.2 mph 0.12 in Rain Heavy Rain
2:39 PM 60.1 °F - 57.9 °F 93% 29.56 in 4.0 mi South 11.5 mph 20.7 mph 0.13 in Rain Light Rain
2:52 PM 60.1 °F - 57.9 °F 93% 29.55 in 3.0 mi South 15.0 mph 19.6 mph 0.14 in Rain Light Rain
3:02 PM 60.1 °F - 57.9 °F 93% 29.54 in 3.0 mi South 13.8 mph 23.0 mph 0.01 in Rain Light Rain
3:26 PM 61.0 °F - 57.9 °F 90% 29.53 in 6.0 mi South 19.6 mph 26.5 mph 0.04 in Rain Light Rain
3:52 PM 61.0 °F - 57.9 °F 90% 29.53 in 6.0 mi South 27.6 mph 34.5 mph 0.06 in Rain Light Rain
4:28 PM 61.0 °F - 57.9 °F 90% 29.52 in 8.0 mi South 18.4 mph 36.8 mph 0.04 in Rain Light Rain
5:34 PM 61.0 °F - 57.0 °F 87% 29.52 in 10.0 mi South 18.4 mph 29.9 mph 0.01 in   Overcast
5:52 PM 61.0 °F - 57.0 °F 87% 29.53 in 4.0 mi South 16.1 mph 27.6 mph 0.04 in Rain Rain
5:59 PM 61.0 °F - 57.0 °F 87% 29.53 in 2.5 mi SW 18.4 mph 29.9 mph 0.03 in Rain Rain
6:04 PM 57.9 °F - 54.0 °F 87% 29.54 in 2.5 mi West 15.0 mph 25.3 mph 0.05 in Rain Heavy Rain
6:12 PM 55.0 °F - 51.1 °F 86% 29.55 in 3.0 mi West 11.5 mph - 0.07 in Rain Rain
6:25 PM 53.1 °F - 51.1 °F 93% 29.56 in 6.0 mi West 6.9 mph 18.4 mph 0.09 in Rain Light Rain
6:33 PM 53.1 °F - 50.0 °F 89% 29.56 in 5.0 mi Variable 6.9 mph - 0.10 in Rain Light Rain
6:41 PM 51.1 °F - 48.0 °F 89% 29.57 in 6.0 mi West 11.5 mph 21.9 mph 0.11 in Rain Light Rain
6:52 PM 51.1 °F - 46.9 °F 86% 29.59 in 7.0 mi Variable 5.8 mph - 0.11 in Rain Light Rain
7:10 PM 48.0 °F - 44.1 °F 86% 29.61 in 7.0 mi WNW 9.2 mph - 0.02 in Rain Light Rain
7:39 PM 45.0 °F 39.7 °F 42.1 °F 90% 29.63 in 10.0 mi WNW 10.4 mph - 0.04 in Rain Light Rain
7:52 PM 44.1 °F 37.4 °F 41.0 °F 89% 29.64 in 10.0 mi NW 13.8 mph - 0.05 in Rain Light Rain
8:11 PM 43.0 °F 36.4 °F 39.9 °F 89% 29.67 in 6.0 mi WNW 12.7 mph - 0.02 in Rain Light Rain
8:52 PM 41.0 °F 33.9 °F 37.9 °F 89% 29.70 in 6.0 mi WNW 12.7 mph 18.4 mph 0.03 in Rain Light Rain
9:52 PM 37.9 °F 31.5 °F 35.1 °F 89% 29.75 in 5.0 mi WNW 9.2 mph - 0.02 in Rain Light Rain
10:42 PM 37.0 °F 28.5 °F 33.1 °F 86% 29.78 in 10.0 mi WNW 13.8 mph 20.7 mph 0.02 in Rain Light Rain
10:52 PM 36.0 °F 28.5 °F 32.0 °F 86% 29.79 in 7.0 mi WNW 10.4 mph 21.9 mph 0.03 in Rain Rain
11:19 PM 34.0 °F 25.5 °F 30.9 °F 89% 29.79 in 5.0 mi WNW 11.5 mph 19.6 mph 0.04 in Snow Light Snow
11:28 PM 34.0 °F 25.0 °F 30.9 °F 89% 29.79 in 1.8 mi NW 12.7 mph - 0.04 in Snow Light Snow
11:41 PM 33.1 °F 24.4 °F 30.9 °F 92% 29.77 in 1.2 mi NW 11.5 mph - 0.05 in Snow Light Snow
11:52 PM 33.1 °F 24.4 °F 30.0 °F 89% 29.79 in 1.2 mi NW 11.5 mph 17.3 mph 0.06 in Snow Light Snow